When you browse on this site, cookies collect data to enhance your experience and personalize the content and advertising you see.
Visit our Privacy Policy to learn more. By continuing to use the site, you agree to this use of cookies and data.
  • In United Kingdom
  • List of Countries
  • For 7 days
  • Water Temperature
  • Satellite Maps
  • Weather Map
  • Weather Widgets
  • user-avatar
    Login

    Hourly Weather Trinidad de Zaachila

    Today, 16 January, Wednesday

    Time Temperature Precipitation Wind Pressure Humidity
    00:00 +14°C° 0 mm 1 mps 638 mmHg 89%
    01:00 +14°C° 0 mm 1 mps 638 mmHg 89%
    02:00 +14°C° 0 mm 1 mps 638 mmHg 90%
    03:00 +13°C° 0 mm 1 mps 637 mmHg 90%
    04:00 +13°C° 0 mm 1 mps 637 mmHg 90%
    05:00 +13°C° 0 mm 1 mps 637 mmHg 91%
    06:00 +13°C° 0 mm 1 mps 637 mmHg 91%
    07:00 +14°C° 0 mm 1 mps 638 mmHg 84%
    08:00 +16°C° 0 mm 1 mps 639 mmHg 78%
    09:00 +18°C° 0 mm 1 mps 639 mmHg 71%
    10:00 +20°C° 0 mm 1 mps 640 mmHg 64%
    11:00 +22°C° 0 mm 1 mps 640 mmHg 56%
    12:00 +24°C° 0 mm 2 mps 641 mmHg 48%
    13:00 +25°C° 0 mm 2 mps 640 mmHg 47%
    14:00 +25°C° 0 mm 2 mps 640 mmHg 45%
    15:00 +25°C° 0 mm 2 mps 639 mmHg 44%
    16:00 +24°C° 0 mm 2 mps 639 mmHg 49%
    17:00 +23°C° 0 mm 2 mps 638 mmHg 55%
    18:00 +21°C° 0 mm 2 mps 638 mmHg 60%
    19:00 +19°C° 0 mm 2 mps 638 mmHg 67%
    20:00 +18°C° 0 mm 2 mps 638 mmHg 74%
    21:00 +17°C° 0 mm 2 mps 638 mmHg 81%
    22:00 +16°C° 0 mm 1 mps 638 mmHg 84%
    23:00 +15°C° 0 mm 1 mps 638 mmHg 87%

    Tomorrow, 17 January, Thursday

    Time Temperature Precipitation Wind Pressure Humidity
    00:00 +15°C° 0 mm 1 mps 638 mmHg 90%
    01:00 +15°C° 0 mm 1 mps 638 mmHg 90%
    02:00 +14°C° 0 mm 1 mps 637 mmHg 91%
    03:00 +14°C° 0 mm 1 mps 637 mmHg 91%
    04:00 +14°C° 0 mm 1 mps 637 mmHg 91%
    05:00 +13°C° 0 mm 1 mps 637 mmHg 90%
    06:00 +13°C° 0 mm 1 mps 637 mmHg 90%
    07:00 +14°C° 0 mm 1 mps 638 mmHg 84%
    08:00 +16°C° 0 mm 1 mps 638 mmHg 77%
    09:00 +18°C° 0 mm 1 mps 639 mmHg 71%
    10:00 +20°C° 0 mm 1 mps 640 mmHg 64%
    11:00 +21°C° 0 mm 2 mps 640 mmHg 56%
    12:00 +24°C° 0 mm 2 mps 640 mmHg 49%
    13:00 +24°C° 0 mm 2 mps 640 mmHg 48%
    14:00 +24°C° 0 mm 2 mps 639 mmHg 47%
    15:00 +25°C° 0 mm 2 mps 639 mmHg 46%
    16:00 +23°C° 0.1 mm 2 mps 638 mmHg 52%
    17:00 +21°C° 0.1 mm 2 mps 638 mmHg 59%
    18:00 +21°C° 0.1 mm 1 mps 638 mmHg 65%
    19:00 +20°C° 0 mm 1 mps 638 mmHg 71%
    20:00 +19°C° 0 mm 1 mps 638 mmHg 77%
    21:00 +16°C° 0 mm 1 mps 638 mmHg 83%
    22:00 +16°C° 0 mm 1 mps 638 mmHg 85%
    23:00 +15°C° 0 mm 1 mps 638 mmHg 87%

    Day after tomorrow, 18 January, Friday

    Time Temperature Precipitation Wind Pressure Humidity
    00:00 +15°C° 0 mm 1 mps 638 mmHg 89%
    01:00 +15°C° 0 mm 1 mps 637 mmHg 89%
    02:00 +14°C° 0 mm 1 mps 637 mmHg 88%
    03:00 +14°C° 0 mm 1 mps 636 mmHg 87%
    04:00 +14°C° 0 mm 1 mps 636 mmHg 86%
    05:00 +14°C° 0 mm 1 mps 636 mmHg 84%
    06:00 +14°C° 0 mm 1 mps 636 mmHg 82%
    07:00 +15°C° 0 mm 1 mps 637 mmHg 75%
    08:00 +16°C° 0 mm 1 mps 638 mmHg 68%
    09:00 +18°C° 0 mm 1 mps 638 mmHg 61%
    10:00 +20°C° 0 mm 1 mps 639 mmHg 54%
    11:00 +22°C° 0 mm 1 mps 639 mmHg 46%
    12:00 +22°C° 0 mm 0 mps 639 mmHg 39%
    13:00 +23°C° 0 mm 0 mps 639 mmHg 37%
    14:00 +23°C° 0 mm 0 mps 638 mmHg 35%
    15:00 +24°C° 0 mm 0 mps 637 mmHg 34%
    16:00 +23°C° 0 mm 0 mps 637 mmHg 39%
    17:00 +21°C° 0 mm 0 mps 637 mmHg 44%
    18:00 +20°C° 0 mm 0 mps 636 mmHg 50%
    19:00 +18°C° 0 mm 0 mps 636 mmHg 54%
    20:00 +17°C° 0 mm 0 mps 636 mmHg 58%
    21:00 +16°C° 0 mm 0 mps 636 mmHg 63%
    22:00 +15°C° 0 mm 0 mps 636 mmHg 65%
    23:00 +15°C° 0 mm 0 mps 636 mmHg 68%

    19 January, Saturday

    Time Temperature Precipitation Wind Pressure Humidity
    00:00 +14°C° 0 mm 0 mps 636 mmHg 70%
    01:00 +15°C° 0 mm 1 mps 635 mmHg 71%
    02:00 +15°C° 0 mm 1 mps 634 mmHg 72%
    03:00 +15°C° 0 mm 1 mps 634 mmHg 73%
    04:00 +14°C° 0 mm 1 mps 634 mmHg 74%
    05:00 +14°C° 0 mm 1 mps 634 mmHg 75%
    06:00 +14°C° 0 mm 1 mps 634 mmHg 77%
    07:00 +16°C° 0 mm 1 mps 635 mmHg 69%
    08:00 +19°C° 0 mm 1 mps 636 mmHg 61%
    09:00 +21°C° 0 mm 1 mps 637 mmHg 53%
    10:00 +23°C° 0 mm 1 mps 637 mmHg 45%
    11:00 +25°C° 0 mm 1 mps 638 mmHg 38%
    12:00 +27°C° 0 mm 1 mps 638 mmHg 30%
    13:00 +27°C° 0 mm 1 mps 637 mmHg 29%
    14:00 +28°C° 0 mm 1 mps 637 mmHg 28%
    15:00 +28°C° 0 mm 1 mps 636 mmHg 27%
    16:00 +27°C° 0 mm 1 mps 636 mmHg 33%
    17:00 +25°C° 0 mm 1 mps 636 mmHg 39%
    18:00 +23°C° 0 mm 1 mps 636 mmHg 46%
    19:00 +22°C° 0 mm 1 mps 636 mmHg 50%
    20:00 +21°C° 0 mm 1 mps 637 mmHg 55%
    21:00 +20°C° 0 mm 1 mps 637 mmHg 59%
    22:00 +19°C° 0 mm 1 mps 638 mmHg 66%
    23:00 +19°C° 0 mm 1 mps 638 mmHg 72%

    20 January, Sunday

    Time Temperature Precipitation Wind Pressure Humidity
    00:00 +17°C° 0 mm 2 mps 638 mmHg 78%
    01:00 +17°C° 0 mm 2 mps 638 mmHg 80%
    02:00 +16°C° 0 mm 2 mps 637 mmHg 82%
    03:00 +16°C° 0 mm 2 mps 637 mmHg 83%
    04:00 +16°C° 0 mm 2 mps 637 mmHg 82%
    05:00 +15°C° 0 mm 2 mps 637 mmHg 81%
    06:00 +15°C° 0 mm 2 mps 638 mmHg 81%
    07:00 +15°C° 0 mm 2 mps 638 mmHg 76%
    08:00 +16°C° 0 mm 2 mps 639 mmHg 72%
    09:00 +16°C° 0 mm 2 mps 640 mmHg 67%
    10:00 +17°C° 0 mm 3 mps 640 mmHg 62%
    11:00 +19°C° 0 mm 3 mps 641 mmHg 56%
    12:00 +20°C° 0 mm 3 mps 641 mmHg 50%
    13:00 +20°C° 0 mm 3 mps 640 mmHg 49%
    14:00 +20°C° 0 mm 3 mps 640 mmHg 48%
    15:00 +20°C° 0 mm 3 mps 639 mmHg 47%
    16:00 +19°C° 0 mm 3 mps 639 mmHg 51%
    17:00 +17°C° 0 mm 3 mps 638 mmHg 55%
    18:00 +16°C° 0 mm 3 mps 638 mmHg 58%
    19:00 +13°C° 0 mm 3 mps 638 mmHg 64%
    20:00 +12°C° 0 mm 2 mps 638 mmHg 70%
    21:00 +10°C° 0 mm 2 mps 638 mmHg 76%
    22:00 +9°C° 0 mm 2 mps 638 mmHg 77%
    23:00 +9°C° 0 mm 2 mps 637 mmHg 78%

    21 January, Monday

    Time Temperature Precipitation Wind Pressure Humidity
    00:00 +8°C° 0 mm 2 mps 637 mmHg 79%
    01:00 +8°C° 0 mm 2 mps 637 mmHg 78%
    02:00 +7°C° 0 mm 2 mps 636 mmHg 76%
    03:00 +7°C° 0 mm 2 mps 636 mmHg 74%
    04:00 +7°C° 0 mm 2 mps 636 mmHg 72%
    05:00 +6°C° 0 mm 2 mps 636 mmHg 70%
    06:00 +6°C° 0 mm 2 mps 636 mmHg 68%
    07:00 +8°C° 0 mm 2 mps 636 mmHg 60%
    08:00 +10°C° 0 mm 2 mps 637 mmHg 51%
    09:00 +13°C° 0 mm 2 mps 638 mmHg 42%
    10:00 +16°C° 0 mm 2 mps 639 mmHg 34%
    11:00 +20°C° 0 mm 1 mps 640 mmHg 26%
    12:00 +23°C° 0 mm 1 mps 640 mmHg 18%
    13:00 +24°C° 0 mm 1 mps 640 mmHg 17%
    14:00 +25°C° 0 mm 1 mps 639 mmHg 16%
    15:00 +26°C° 0 mm 1 mps 639 mmHg 14%
    16:00 +24°C° 0 mm 1 mps 638 mmHg 20%
    17:00 +22°C° 0 mm 1 mps 637 mmHg 25%
    18:00 +20°C° 0 mm 1 mps 637 mmHg 30%
    19:00 +18°C° 0 mm 1 mps 636 mmHg 33%
    20:00 +16°C° 0 mm 1 mps 636 mmHg 36%
    21:00 +13°C° 0 mm 0 mps 636 mmHg 40%
    22:00 +13°C° 0 mm 1 mps 636 mmHg 40%
    23:00 +13°C° 0 mm 1 mps 636 mmHg 41%
    Show more